Location: Newark
(47.5500°N, 8.6167°E)
Time: 17:23:04
(UTC+00:00)

AO-7 - Visible Passes

Search period start: 09 April 2020 00:00
Search period end: 19 April 2020 00:00
Orbit: 1439 x 1459 km, 101.8° (Epoch: 09 April)

Date Brightness Start Highest point End Pass type
(mag) Time Alt. Az. Time Alt. Az. Time Alt. Az.
09 Apr ? 01:32:52 10° NE 01:37:56 17° E 01:42:57 10° SE visible
09 Apr ? 03:23:42 10° NNE 03:32:03 76° ESE 03:40:20 10° SSW visible
10 Apr ? 02:24:12 10° NNE 02:31:42 36° E 02:39:09 10° SSE visible
11 Apr ? 01:26:17 10° NE 01:30:45 15° E 01:35:11 10° ESE visible
11 Apr ? 03:16:42 10° NNE 03:25:01 70° ESE 03:33:16 10° S visible
12 Apr ? 02:17:18 10° NNE 02:24:37 33° E 02:31:52 10° SSE visible
12 Apr ? 04:09:41 10° NNE 04:17:52 65° WNW 04:26:01 10° SW visible
13 Apr ? 01:19:51 10° ENE 01:23:34 13° E 01:27:16 10° ESE visible
13 Apr ? 03:09:42 10° NNE 03:17:58 65° ESE 03:26:11 10° S visible
14 Apr ? 02:10:25 10° NE 02:17:30 30° E 02:24:31 10° SSE visible
14 Apr ? 04:02:38 10° NNE 04:10:54 71° WNW 04:19:06 10° SSW visible
15 Apr ? 01:13:41 10° ENE 01:16:22 12° E 01:19:03 10° ESE visible
15 Apr ? 03:02:43 10° NNE 03:10:55 59° ESE 03:19:04 10° S visible
16 Apr ? 02:03:33 10° NE 02:10:23 27° E 02:17:08 10° SSE visible
16 Apr ? 03:55:36 10° NNE 04:03:54 76° WNW 04:12:09 10° SSW visible
17 Apr ? 01:08:36 10° ENE 01:09:10 10° E 01:09:44 10° E visible
17 Apr ? 02:55:45 10° NNE 03:03:51 54° ESE 03:11:56 10° S visible
18 Apr ? 01:56:44 10° NE 02:03:15 25° E 02:09:43 10° SE visible
18 Apr ? 03:48:34 10° NNE 03:56:54 82° WNW 04:05:11 10° SSW visible
